MOLNIYA 3-10

Last updated on Jan. 26, 2020, 4:40 a.m. UTC

1 11057U 78095A   20025.43587807  .00001292  00000-0  24035-3 0  9995
2 11057  62.7385  13.5866 5972334 295.6299  15.3909  4.09365984347921
UTC
Height (km)
Latitude
Longitude
Inclination
Orbital Period
UTC large
Height (km)
Speed (km/s)
/
Latitude / Longitude
Inclination (degrees)
Orbital Period (minutes)
Azimuth
Elevation
Range (km)
Doppler Factor
iOS Compass Heading
iOS Angle

Next 30 passes for location: Hong Kong

Rise time Rise Azimuth (degrees) Set time Set Azimuth (degrees) Duration Max altitude (degrees)

No matching passes for this satellites